Other Surface Observations
Issued by NWS Tucson, AZ

Home | Current Version | Previous Version | Text Only | Print | Product List | Glossary On
Versions: 1 2 3 4 5 6 7 8 9 10 11 12 13 14 15 16 17 18 19 20 21 22 23 24 25 26 27 28 29 30 31 32 33 34 35 36 37 38 39 40 41 42 43 44 45 46 47 48 49 50
983
SXUS55 KTWC 250115
OSOTWC

WEATHER ROUNDUP FOR SOUTHEAST ARIZONA
NATIONAL WEATHER SERVICE TUCSON AZ
615 PM MST TUE JAN 24 2017

AZZ504>506-514-250215-
LOCATION       SKY/WX    TMP DP  RH WIND       PRES   REMARKS
TUCSON         PTCLDY    49  30  48 NW12      30.00R
DAVIS-MONTHAN  PTCLDY    47  31  51 NW9       29.99R
CHILDRENS PARK N/A      N/A N/A  43 NW7               PIMA CO DEQ
ALVERNON/22ND  N/A       51 N/A N/A NW8               PIMA CO DEQ
CHERRY/GLENN   N/A       54 N/A N/A NW7               PIMA CO DEQ
TANGERINE      N/A       49 N/A N/A NW6               PIMA CO DEQ
CONTL RANCH    N/A       51  29  42 NW7               PIMA CO DEQ
GRANT/1ST      N/A       52  29  41 NW9               PIMA CO DEQ
CRAYCROFT/22ND N/A       51  30  45 N/A               PIMA CO DEQ
GOLFLINKS/KOLB N/A       51  29  42 NW8               PIMA CO DEQ
AJO/12TH       N/A       52  31  45 W8                PIMA CO DEQ
FAIRGROUNDS    N/A       49 N/A N/A W11               PIMA CO DEQ
SAGUARO        N/A       49  28  44 W8G14             *SABINO CYN
SAN CARLOS     N/A       45  27  49 W10G17            *SAN CARLOS
GREEN VALLEY   N/A       51  22  32 SW11              PIMA CO DEQ
HORSE CAMP CYN N/A       42  27  55 W16G22            *ARAVAIPA CYN
RINCON MTNS    N/A       22  21  95 W3G10             *NR MANNING CAMP
$$

AZZ509>511-250215-
LOCATION       SKY/WX    TMP DP  RH WIND       PRES   REMARKS
SAFFORD        PTCLDY    45  27  49 NW15      29.93R
STRAY HORSE    N/A       21  17  86 N/A               *
TRAIL CABIN    N/A       30  18  60 NW6G14            *N OF GRANVILLE
BLACK HILLS    NOT AVBL
DRY LAKE       N/A       22  21  95 W8G15             *NATANES MTNS
NOON CREEK     N/A       35  25  67 SW5G11            *PINALENO MTNS
COLUMBINE      NOT AVBL
GUTHRIE        N/A       30  21  69 W14G26            *SW OF GUTHRIE
$$

AZZ502-503-513-250215-
LOCATION       SKY/WX    TMP DP  RH WIND       PRES   REMARKS
NOGALES        PTCLDY    44  24  45 NW7       29.97R
SELLS          N/A       51  28  40 NE8G16            *
SASABE         N/A       48  24  39 W10G15            *ALTAR VLY
HOPKINS        N/A       33  24  70 W9G15             *SANTA RITA MTNS
CARR CYN       N/A       39  21  47 SE2               *W OF HEREFORD
$$

AZZ507-508-512-250215-
LOCATION       SKY/WX    TMP DP  RH WIND       PRES   REMARKS
SIERRA VISTA   PTCLDY    39  20  45 W8        29.97R WCI  34
DOUGLAS        PTCLDY    45  23  42 W14       29.95R
EMPIRE MTNS    NOT AVBL
MULESHOE RANCH N/A       43  19  37 W10G21            *PRESERVE
HEADQUARTERS   NOT AVBL
$$

.............................NOTES.............................
THIS IS AN AUTOMATED COLLECTIVE WITH MINIMAL QUALITY CONTROL.
PIMA CO DEQ SITES HAVE NONSTANDARD WIND SENSOR HEIGHTS.
PIMA CO DEQ SITES DO NOT REPORT WIND GUSTS.
* INDICATES WIND SENSORS LOCATED AT 20 FEET INSTEAD OF 33 FEET.
..............................KEY..............................
SKY/WX - SKY CONDITION/WEATHER
TMP    - TEMPERATURE IN FAHRENHEIT
DP     - DEWPOINT IN FAHRENHEIT
RH     - RELATIVE HUMIDITY IN PERCENT
WIND   - DIRECTION AND SPEED IN MILES PER HOUR (MPH)
VRB    - VARIABLE WIND DIRECTION
PRES   - MEAN SEA LEVEL PRESSURE IN INCHES OF MERCURY
         F - FALLING PRESSURE   R - RISING PRESSURE
         S - STEADY PRESSURE
VSB    - VISIBILITY IN MILES
HX     - HEAT INDEX IN FAHRENHEIT
WCI    - WIND CHILL INDEX IN FAHRENHEIT
N/A    - NOT AVAILABLE
AFB    - AIR FORCE BASE
         DAVIS-MONTHAN IS DAVIS-MONTHAN AIR FORCE BASE
CYN    - CANYON
MTNS   - MOUNTAINS
NCA    - NATIONAL CONSERVATION AREA
NR     - NEAR
VLY    - VALLEY
CONTL  - CONTINENTAL
PIMA CO DEQ - PIMA COUNTY DEPT OF ENVIRONMENTAL QUALITY



USA.gov is the U.S. government's official web portal to all federal, state and local government web resources and services.